Search for airport 
image banner adimage banner adimage banner ad
image banner ad

KMRY - Monterey Rgnl

Located in Monterey, United States

ICAO - MRY, IATA - MRY

Data provided by Airmate  

General information

Coordinates: N36°35'13" W121°50'34"
Elevation is 257 feet MSL.
Magnetic variation is 15° East
View others Airports in California

Operational data

Special qualification required
Current time UTC:
Current local time:
Weather
METAR: KMRY 191054Z AUTO 09004KT 10SM CLR 08/05 A3001 RMK AO2 SLP173 T00780050
TAF: KMRY 190523Z 1906/2006 VRB05KT P6SM FEW005 FEW250 FM191400 VRB03KT P6SM SCT250 FM192000 25006KT P6SM BKN250 FM200400 12004KT P6SM OVC250
View NOTAMs / SUP AIP / TFR affecting this airport [VIEW]
Communications frequencies: [VIEW]

Runways:

RWY identifierQFULength (ft)Width (ft)SurfaceLDA (ft)
10R113°7175150ASPH7000
28L293°7175150ASPH7000
10L113°350360ASPH3504
28R293°350360ASPH3504

Airport contact information

Address: Monterey United States

Other aviation service providers

Flight schools

Aerodynamic Aviation - Monterey

Aerodynamic Aviation - Monterey

Satellite view of KMRY